Location: Young's Pond
(41.2695°N, 72.7766°W)
Time: 15:34:13
(UTC-04:00)

Spot 4 - Visible Passes

Search period start: 29 March 2015 00:00
Search period end: 08 April 2015 00:00
Orbit: 706 x 723 km, 98.4° (Epoch: 29 March)

Date Brightness Start Highest point End Pass type
(mag) Time Alt. Az. Time Alt. Az. Time Alt. Az.
29 Mar 6.1 20:57:31 11° NE 20:57:31 11° NE 20:58:08 10° NE visible
29 Mar 5.8 22:36:39 26° NNW 22:36:39 26° NNW 22:38:44 10° NNW visible
30 Mar 5.6 21:44:38 23° NNE 21:44:38 23° NNE 21:46:57 10° N visible
30 Mar 6.5 23:23:47 16° NW 23:23:47 16° NW 23:24:55 10° NW visible
31 Mar 6.1 20:52:38 10° NE 20:52:38 10° NE 20:52:39 10° NE visible
31 Mar 5.6 22:31:46 28° N 22:31:46 28° N 22:34:05 10° NNW visible
01 Apr 5.5 21:39:45 22° NE 21:39:45 22° NE 21:42:12 10° N visible
01 Apr 6.4 23:18:54 18° NW 23:18:54 18° NW 23:20:23 10° NNW visible
02 Apr 5.4 22:26:53 31° N 22:26:53 31° N 22:29:26 10° N visible
03 Apr 5.5 21:34:52 22° NE 21:34:52 22° NE 21:37:26 10° NNE visible
03 Apr 6.2 23:14:00 21° NW 23:14:00 21° NW 23:15:49 10° NNW visible
04 Apr 5.2 22:21:59 34° N 22:21:59 34° N 22:24:46 10° N visible
05 Apr 5.5 21:29:58 21° NE 21:29:58 21° NE 21:32:39 10° NNE visible
05 Apr 6.0 23:09:06 24° NW 23:09:06 24° NW 23:11:15 10° NNW visible
06 Apr 5.0 22:17:05 36° N 22:17:05 36° N 22:20:06 10° N visible
06 Apr 6.8 23:56:14 10° WNW 23:56:14 10° WNW 23:56:21 10° WNW visible
07 Apr 5.5 21:25:04 20° NE 21:25:04 20° NE 21:27:51 10° NNE visible
07 Apr 5.8 23:04:13 27° NW 23:04:13 27° NW 23:06:40 10° NNW visible
